Location: ????????
(55.7969°N, 38.8840°E)
Time: 16:39:11
(UTC+00:00)

Daily predictions for brighter satellites

Satellite Brightness Start Highest point End
(mag) Time Altitude Azimuth Time Altitude Azimuth Time Altitude Azimuth
Cosmos 2082 Rocket 3.8 16:13:03 10° WSW 16:18:19 37° NW 16:23:38 10° NNE
Resurs 01 Rocket 2.8 16:18:10 10° ESE 16:21:51 26° ENE 16:25:34 10° N
Cosmos 1461 4.5 16:20:06 10° SE 16:22:07 14° ESE 16:24:07 10° E
Cosmos 1743 2.7 16:18:44 10° S 16:22:36 90° ESE 16:26:30 10° NNE
DMSP B5D1-3 4.5 16:17:36 10° NNE 16:22:44 72° ESE 16:27:49 10° S
ASTEX 1 3.9 16:19:20 10° NNE 16:23:53 37° E 16:28:24 10° SSE
Cosmos 389 Rocket 3.8 16:22:04 10° N 16:24:54 23° ENE 16:27:43 10° ESE
Resurs 1-3 4.5 16:21:07 10° SE 16:25:01 32° ENE 16:28:57 10° N
COSMOS 2455 3.3 16:19:09 10° NW 16:25:07 64° SW 16:31:03 10° SSE
USA 186 2.1 16:22:57 10° SSE 16:26:14 53° ENE 16:29:37 10° N
GP-B 3.1 16:23:14 10° N 16:27:41 64° E 16:32:05 10° S
Cosmos 2315 Rocket 4.3 16:22:28 10° SSW 16:28:44 75° WNW 16:35:01 10° N
Meteor 1-4 Rocket 4.0 16:26:54 10° N 16:29:47 22° ENE 16:32:37 10° ESE
Cosmos 1842 3.4 16:27:04 10° NNW 16:31:04 80° WSW 16:35:01 10° S
Okean 2 Rocket 3.2 16:26:39 10° S 16:31:08 90° E 16:35:40 10° NNE
Meteor 2-9 Rocket 4.3 16:27:39 10° S 16:33:17 57° E 16:38:49 10° NNE
Timation 2 Rocket 4.5 16:27:43 10° S 16:33:44 39° ESE 16:39:32 10° NE
Okean 1 Rocket 3.7 16:30:08 10° SSE 16:34:03 34° E 16:37:59 10° NNE
Cosmos 1833 4.3 16:29:50 10° SSW 16:35:24 57° ESE 16:40:58 10° NE
CZ-4 R/B 4.3 16:34:24 10° SW 16:37:21 20° W 16:40:21 10° NW
Ariane Rocket 3.9 16:35:10 10° S 16:40:07 53° W 16:45:07 10° NNW
Nadezhda 1 Rocket 4.1 16:35:30 10° SSE 16:41:21 53° E 16:47:15 10° NNE
NOSS 3-4 (A) 3.8 16:35:54 10° NW 16:42:41 89° WSW 16:50:11 10° SE
NOSS 3-4 (C) 3.8 16:35:59 10° NW 16:42:46 90° WSW 16:50:16 10° SE
COSMOS 2487 3.2 16:39:20 10° SW 16:42:47 58° WNW 16:46:15 10° NNE
Cosmos 2297 Rocket 3.9 16:42:57 11° E 16:43:28 11° E 16:44:55 10° ENE
CZ-2C R/B 3.9 16:39:39 10° NNE 16:44:02 47° E 16:48:19 10° S
Cosmos 407 Rocket 3.7 16:41:58 10° NNW 16:47:03 53° NE 16:51:46 12° SE
Cosmos 2333 Rocket 2.4 16:42:51 10° NW 16:48:33 74° WSW 16:54:15 10° SSE
SPOT 3 Rocket 3.5 16:45:03 10° SSE 16:50:13 86° ENE 16:55:25 10° NNW
ERBS 2.5 16:48:44 10° W 16:52:08 70° N 16:54:55 14° E
ARGOS 3.2 16:47:12 10° SSE 16:52:31 67° ENE 16:57:53 10° NNW
NOSS 2-1 (C) 4.3 16:50:28 10° W 16:54:00 47° NNW 16:58:22 10° NE
NOSS 3-3 (A) 4.2 16:50:18 10° SSW 16:56:07 50° SE 17:02:41 10° NE
NOSS 3-3 (C) 4.2 16:50:25 10° SSW 16:56:14 50° SE 17:02:47 10° NE
NOSS 2-1 (D) 4.4 16:53:39 10° W 16:57:12 45° NNW 17:01:34 10° NE
Okean 1-7 Rocket 3.9 16:53:08 10° N 16:57:24 46° ENE 17:01:18 12° SE
Cosmos 405 Rocket 4.1 16:57:12 16° ESE 16:58:10 18° E 17:00:44 10° NE
Cosmos 614 Rocket 4.1 16:56:19 10° NNW 17:01:32 63° ENE 17:05:58 14° SE
Meteor 2-15 Rocket 4.4 16:55:42 10° S 17:01:48 72° E 17:07:57 10° NNE
Cosmos 2341 Rocket 4.0 16:56:15 10° N 17:02:32 66° ENE 17:08:44 10° SSE
Aureole 1 Rocket 4.3 16:56:38 10° NNW 17:02:38 54° WSW 17:07:08 10° S
NOSS 0 Rocket 4.0 16:57:28 10° NW 17:03:42 87° SW 17:09:45 11° SSE
Meteor 2-15 4.4 16:57:48 10° S 17:03:57 86° E 17:10:10 10° NNE
Cosmos 1892 Rocket 3.8 16:59:45 10° N 17:04:10 51° ENE 17:07:56 13° SSE
Cosmos 1025 Rocket 4.1 17:00:17 10° NNW 17:04:23 46° W 17:08:27 10° SSW
Cosmos 2237 Rocket 2.2 17:00:57 10° NNW 17:06:41 74° NE 17:11:27 15° SE
USA 234 3.4 17:04:39 11° E 17:11:07 81° N 17:17:42 10° W
Cosmos 2181 Rocket 4.4 17:07:55 10° SSE 17:13:41 41° E 17:19:33 10° NNE
Cosmos 1626 4.3 17:12:58 10° NNE 17:14:38 13° ENE 17:15:17 12° ENE
Cosmos 1980 3.7 17:09:20 10° NW 17:15:02 85° NE 17:19:38 16° SE
CZ-4C R/B 3.3 17:09:50 10° W 17:15:24 50° NNW 17:22:05 10° ENE
In-Cosmos 22 4.1 17:10:48 10° NNW 17:16:08 71° ENE 17:21:10 12° SSE
Spot 2 Rocket 3.8 17:14:05 18° SE 17:17:38 48° ENE 17:22:29 10° N
SJ-6B 3.7 17:14:58 10° S 17:19:01 52° W 17:23:03 10° NNW
Cosmos 1441 Rocket 3.1 17:15:20 10° S 17:19:10 79° ESE 17:22:58 10° NNE
MetOp-A 4.1 17:16:51 11° SSE 17:21:56 77° ENE 17:27:19 10° NNW
H-2A R/B 2.1 17:17:44 10° S 17:22:40 74° WSW 17:27:43 10° NNW
ERS-1 Rocket 4.0 17:20:19 19° E 17:22:47 29° ENE 17:27:05 10° N
Cosmos 1140 Rocket 3.5 17:17:52 10° NNW 17:23:05 66° ENE 17:26:31 21° SE
SL-08 RB Rocket 3.7 17:21:31 11° SSE 17:25:58 89° E 17:30:42 10° NNW
ATLAS 2AS CENTAUR R/B 3.6 17:18:47 10° NW 17:26:15 51° SW 17:33:05 10° SSE
SAR-Lupe-2 4.4 17:22:44 10° N 17:26:17 54° WNW 17:29:47 10° SSW
Cosmos 2218 Rocket 4.1 17:21:02 10° N 17:27:26 63° ENE 17:32:34 16° SSE
Meteor 1-12 Rocket 4.4 17:21:43 10° SSW 17:27:28 78° WNW 17:33:11 10° NNE
Cosmos 1544 3.2 17:24:08 10° SSW 17:27:43 73° WNW 17:31:21 10° N
ADEOS Rocket 3.4 17:22:38 10° NNE 17:29:36 63° ESE 17:37:08 10° S
Cosmos 1707 3.5 17:28:40 10° NNW 17:32:30 54° W 17:36:20 10° S
SL-16 R/B 2.5 17:28:37 10° NNW 17:34:14 55° NE 17:37:26 25° ESE
Cosmos 676 Rocket 4.0 17:30:50 10° NNW 17:36:09 69° ENE 17:39:10 26° SE
Cosmos 2366 rocket 4.0 17:30:28 10° N 17:36:50 68° ENE 17:41:37 18° SSE
Cosmos 1674 2.9 17:34:47 10° N 17:38:27 48° ENE 17:39:32 36° ESE
COSMOS 2428 4.0 17:34:02 10° NW 17:39:11 37° WSW 17:44:21 10° S
Cosmos 864 Rocket 4.4 17:38:28 10° N 17:44:41 72° ENE 17:49:06 20° SSE
KORONAS-FOTON 4.0 17:42:13 10° N 17:45:59 52° ENE 17:46:55 40° ESE
Meteor 1-15 Rocket 4.2 17:40:17 10° S 17:46:00 71° E 17:51:52 10° NNE
Cosmos 2219 Rocket 3.7 17:43:05 10° NW 17:48:01 33° WSW 17:52:56 10° S
SL-8 Rocket 4.0 17:43:21 10° NNW 17:49:37 86° W 17:54:55 15° S
CZ-2C R/B 3.3 17:48:04 15° S 17:52:27 71° WSW 17:57:58 10° NNW
Cosmos 1544 Rocket 3.8 17:51:03 34° SE 17:52:30 47° E 17:56:49 10° NNE
Cosmos 1766 3.8 17:53:37 38° E 17:53:37 38° E 17:57:15 10° NNE
Cosmos 1455 Rocket 3.1 17:51:32 28° SSE 17:53:39 57° E 17:58:02 10° NNE
Cosmos 1190 Rocket 4.3 17:48:27 10° NNW 17:53:44 65° WSW 17:57:12 21° S
Terra 2.9 17:56:26 26° E 17:57:35 30° ENE 18:01:43 10° N
Resurs 01 Rocket 2.2 17:54:43 16° S 17:58:05 56° WSW 18:02:29 10° NNW
CARTOSAT-1 4.4 17:57:56 31° E 17:58:43 34° ENE 18:02:38 10° N
Cosmos 389 Rocket 3.8 17:56:34 10° NNW 17:59:46 36° W 18:01:56 17° SSW
Cosmos 1461 2.6 17:56:34 10° SW 18:00:32 73° SE 18:04:30 10° NE
RESURS DK-1 3.2 17:58:16 10° NNW 18:02:12 38° NE 18:03:09 33° ENE
DMSP B5D2-2 4.1 17:58:53 10° NNE 18:04:10 62° ESE 18:07:28 23° S
Meteor 1-4 Rocket 3.5 18:01:36 10° NNW 18:05:05 43° W 18:06:50 24° SSW
Cosmos 1959 Rocket 4.5 17:59:17 10° NNW 18:05:26 81° W 18:09:50 20° S
Cosmos 1850 Rocket 4.2 18:02:33 10° NNW 18:07:40 55° NE 18:09:19 39° ESE
Cosmos 1626 Rocket 3.4 18:03:46 10° N 18:08:08 75° ENE 18:09:17 47° SSE
CZ-2C R/B 3.0 18:03:48 10° NNE 18:09:07 46° E 18:10:42 37° SE
Cosmos 2219 3.2 18:04:45 10° SSW 18:10:24 61° ESE 18:16:05 10° NE
Cosmos 1437 Rocket 2.8 18:09:38 10° NNW 18:13:30 72° W 18:14:26 48° S
Cosmos 1825 Rocket 4.4 18:10:29 10° N 18:14:29 34° ENE 18:14:38 34° ENE
Cosmos 2227 Rocket 2.5 18:13:49 39° SE 18:14:49 43° ESE 18:20:09 10° NE
Cosmos 1733 4.4 18:18:29 29° NE 18:18:29 29° NE 18:20:49 10° NNE
Timation 2 Rocket 4.5 18:14:32 10° SW 18:21:01 63° NW 18:27:16 10° NE
SPOT 1/Viking Rocket 3.5 18:19:35 44° SE 18:21:13 73° ENE 18:26:25 10° NNW
Meteor 1-24 Rocket 3.8 18:16:16 10° NNW 18:21:55 78° W 18:24:53 30° S
Cosmos 1758 Rocket 4.1 18:18:00 10° N 18:22:07 41° ENE 18:22:10 41° ENE
Cosmos 2056 Rocket 3.5 18:20:07 18° SSW 18:24:12 68° ESE 18:29:36 10° NNE
Cosmos 2297 Rocket 2.3 18:24:38 40° SSE 18:26:14 52° ESE 18:31:44 10° NE
Cosmos 1602 Rocket 3.4 18:22:37 10° NNW 18:27:03 89° WSW 18:27:50 60° S
Meteor 2-5 Rocket 4.3 18:21:53 10° NNW 18:27:30 55° W 18:31:20 21° SSW
ERBS 2.9 18:25:11 10° WNW 18:27:56 50° WSW 18:27:56 50° WSW
Cosmos 405 Rocket 3.3 18:32:19 30° SW 18:33:49 52° WNW 18:37:28 10° N
Cosmos 1741 Rocket 4.0 18:29:18 10° NNW 18:34:40 79° ENE 18:35:53 54° SE
Cosmos 1624 Rocket 3.8 18:33:14 19° SSW 18:36:58 84° ESE 18:42:13 10° NNE
Cosmos 1943 3.8 18:35:14 10° NNW 18:40:45 46° NE 18:42:16 38° E
SPOT 5 2.7 18:43:55 68° SE 18:44:31 83° ENE 18:49:30 10° NNW
NOSS 3-3 (A) 4.5 18:40:44 10° WSW 18:46:58 65° NNW 18:54:07 10° NE
NOSS 3-3 (C) 4.5 18:40:50 10° WSW 18:47:05 65° NNW 18:54:13 10° NE
MOS 1 Rocket 4.0 18:43:01 10° NNE 18:47:42 45° E 18:47:42 45° E
Thor Agena Rocket 4.1 18:45:05 10° NNE 18:49:33 42° E 18:49:33 42° E
Cosmos 2237 Rocket 3.8 18:45:33 10° NW 18:50:19 28° WSW 18:53:17 18° SSW
Cosmos 1626 2.6 18:46:50 10° NNW 18:49:51 56° N 18:49:51 56° N
Cosmos 1805 3.6 18:52:02 61° W 18:52:11 61° WNW 18:56:05 10° N
USA 234 3.2 18:52:00 46° ESE 18:54:13 82° SSW 19:00:49 10° WNW
Meteor 1-22 Rocket 4.4 18:53:50 31° SSW 18:56:56 83° WNW 19:03:07 10° NNE
Cosmos 1934 Rocket 3.9 18:51:22 10° N 18:57:29 69° ENE 18:58:36 57° SE
IGS 5A 3.8 19:00:56 58° WSW 19:00:58 58° W 19:05:06 10° NNW
ERS-1 Rocket 3.3 19:00:19 51° SSW 19:01:19 61° WSW 19:06:19 10° NNW
Cosmos 1271 Rocket 4.1 18:59:47 10° N 19:02:07 30° NNE 19:02:07 30° NNE
Landsat 7 4.3 19:02:59 48° SW 19:03:46 54° W 19:08:28 10° NNW
CZ-4C R/B 3.5 18:59:10 10° WNW 19:05:09 46° N 19:10:48 16° ENE
SL-14 R/B 4.1 19:08:01 10° NNW 19:11:36 47° WNW 19:11:36 47° WNW
Cosmos 1603 3.5 19:07:27 10° NNW 19:13:09 82° NE 19:13:42 73° ESE
Nadezhda 3 Rocket 3.9 19:14:39 56° S 19:16:06 90° ENE 19:22:21 10° NNE
SL-16 R/B 3.1 19:13:00 10° NW 19:18:14 39° WSW 19:19:18 36° SW
Cosmos 1452 Rocket 3.6 19:19:42 64° ENE 19:19:42 64° ENE 19:24:18 10° NNE
Cosmos 1605 Rocket 3.9 19:22:36 10° N 19:29:04 78° ENE 19:29:48 69° SE
Cosmos 1821 Rocket 4.5 19:26:21 10° NNW 19:32:21 53° W 19:33:57 42° SW
Cosmos 1953 Rocket 4.1 19:28:47 10° NNW 19:32:35 59° NW 19:32:35 59° NW
Terra 2.3 19:35:19 54° W 19:35:19 54° W 19:39:50 10° NNW
Cosmos 2082 3.6 19:37:57 79° SW 19:38:20 87° NW 19:44:06 10° NE
Cosmos 1153 Rocket 4.5 19:33:28 10° N 19:39:48 66° ENE 19:40:09 64° E
Cosmos 1461 4.5 19:36:20 10° W 19:39:57 32° NNW 19:43:35 10° NE
RESURS DK-1 3.9 19:36:22 10° NW 19:39:02 32° WNW 19:39:02 32° WNW
Cosmos 2100 Rocket 4.4 19:34:36 10° N 19:40:47 48° ENE 19:41:11 47° E
Cosmos 968 Rocket 4.3 19:35:54 10° NNW 19:40:50 41° NE 19:40:53 41° NE
Mayak 0.8 19:41:46 10° NNE 19:43:17 20° NE 19:43:17 20° NE
CZ-2C R/B 3.8 19:44:16 10° N 19:49:25 41° WNW 19:52:13 24° WSW
Helios 1A 4.2 19:55:20 40° N 19:55:20 40° N 19:58:11 10° NNW
Cosmos 2219 4.5 19:49:28 10° WSW 19:54:53 40° NW 20:00:18 10° NNE
Spot 4 4.3 19:55:49 61° N 19:55:49 61° N 19:59:52 10° NNW
Cosmos 2058 Rocket 4.4 19:57:14 34° NNE 19:57:14 34° NNE 19:59:51 10° NNE
Geosat 4.3 19:56:23 64° WNW 19:56:23 64° WNW 20:00:46 10° NW
Cosmos 2227 Rocket 2.9 19:55:32 23° WSW 19:58:51 51° NW 20:04:25 10° NNE
Cosmos 2228 4.2 20:00:32 41° N 20:00:32 41° N 20:03:29 10° N
Cosmos 1953 4.0 20:03:10 32° N 20:03:10 32° N 20:05:31 10° N
Cosmos 2297 Rocket 3.2 20:06:20 17° WSW 20:10:28 44° NW 20:15:54 10° NNE
Cosmos 2173 Rocket 4.0 20:06:43 10° N 20:13:06 68° ENE 20:13:07 68° ENE
Meteor 1-11 4.3 20:09:21 10° NNW 20:14:26 69° NW 20:14:26 69° NW
Cosmos 1802 Rocket 4.1 20:13:36 10° N 20:19:46 65° ENE 20:19:46 65° ENE
Cosmos 2061 Rocket 4.2 20:17:03 10° N 20:23:28 63° ENE 20:23:28 63° ENE
ALOS 2 3.9 20:26:03 38° N 20:26:03 38° N 20:28:51 10° NNW
Cosmos 1943 3.9 20:19:26 10° NW 20:24:04 45° W 20:24:04 45° W
Cosmos 1459 Rocket 3.9 20:24:23 10° N 20:30:05 78° NNE 20:30:05 78° NNE
Cosmos 2263 Rocket 3.2 20:32:56 38° ENE 20:32:56 38° ENE 20:36:32 10° NE
USA 234 4.1 20:39:21 37° WSW 20:39:21 37° WSW 20:43:58 10° WNW
Cosmos 1833 Rocket 4.4 20:35:16 10° NNW 20:40:07 28° NNE 20:42:25 22° ENE
Cosmos 2016 Rocket 4.0 20:42:26 10° N 20:48:06 75° NNE 20:48:06 75° NNE
Cosmos 2285 Rocket 4.3 20:44:34 10° NNW 20:50:21 59° W 20:50:21 59° W
SJ 16-02 4.3 20:51:57 10° N 20:53:35 12° NNE 20:55:12 10° NE
CZ-4C R/B 2.8 20:47:57 10° NW 20:54:36 75° NNE 20:55:55 61° E
Cosmos 1727 Rocket 4.1 20:56:59 67° WNW 20:56:59 67° WNW 21:03:11 10° N
SL-16 R/B 4.2 21:02:37 20° E 21:05:18 27° NE 21:10:20 10° N
Lacrosse 5 4.4 21:16:55 12° ENE 21:16:55 12° ENE 21:17:15 10° ENE
Mayak 0.8 21:17:33 10° N 21:19:52 25° NNW 21:19:52 25° NNW
Cosmos 839 Rocket 4.2 21:23:52 10° NW 21:28:58 60° WNW 21:28:58 60° WNW
CZ-2D R/B 4.5 21:28:45 10° ENE 21:30:36 12° E 21:31:01 12° E
Cosmos 2123 Rocket 4.0 21:35:46 79° NNE 21:35:46 79° NNE 21:41:44 10° NNE
Cosmos 2082 Rocket 3.4 21:30:41 10° NNW 21:36:05 39° NE 21:37:49 32° ENE
ATLAS CENTAUR R/B 3.1 21:41:00 35° NE 21:41:00 35° NE 21:43:48 10° NE
Cosmos 1844 Rocket 3.6 21:44:36 40° ENE 21:44:36 40° ENE 21:48:39 10° NE
USA 267 3.1 21:36:57 10° ENE 21:43:08 79° E 21:43:08 79° E
Cosmos 2227 Rocket 4.4 21:39:53 10° WNW 21:44:14 22° NNW 21:48:36 10° NNE
Cosmos 1725 Rocket 4.4 21:38:51 10° NNW 21:44:11 53° WNW 21:44:11 53° WNW
COSMOS 2406 3.6 21:40:01 10° NW 21:44:46 61° NNW 21:44:46 61° NNW
Cosmos 1844 4.3 22:09:48 51° ENE 22:09:48 51° ENE 22:14:24 10° NE
Cosmos 921 Rocket 4.4 22:13:09 39° NNE 22:13:09 39° NNE 22:16:04 10° NNE
Cosmos 1898 Rocket 4.3 22:07:02 10° NNW 22:12:02 45° NE 22:12:26 44° ENE
Cosmos 2263 Rocket 3.0 22:14:36 41° WNW 22:15:09 42° NW 22:20:33 10° NNE
Cosmos 1455 4.3 22:25:04 26° N 22:25:04 26° N 22:26:51 10° N
Cosmos 2278 Rocket 3.5 22:23:54 30° E 22:23:54 30° E 22:28:25 10° NE
Cosmos 1833 Rocket 2.9 22:19:12 10° NW 22:24:03 66° NNW 22:24:03 66° NNW
CZ-4B R/B 4.2 22:20:49 10° NNE 22:24:53 48° ENE 22:24:53 48° ENE
SL-19 R/B 4.3 22:23:58 10° NNE 22:29:13 73° NW 22:29:13 73° NW
Intercosmos 25 Rocket 4.5 22:32:28 63° NW 22:32:28 63° NW 22:39:45 10° N
Cosmos 1633 Rocket 4.4 22:28:08 10° N 22:31:49 36° NE 22:31:49 36° NE
MOZ.5/SAFIR/RUBIN 5/SL-8 4.5 22:33:30 53° NNE 22:33:30 53° NNE 22:37:18 10° N
SJ 16-02 2.6 22:29:18 10° NNW 22:33:19 38° NE 22:33:19 38° NE
Meteor 2-3 Rocket 4.0 22:27:55 10° NNW 22:32:35 60° NW 22:32:35 60° NW
Lacrosse 5 rocket 3.9 22:39:58 15° E 22:39:58 15° E 22:40:42 10° E
ADEOS II 4.4 22:36:04 10° NE 22:39:06 15° E 22:41:26 12° ESE
CZ-4C R/B 3.5 22:36:31 10° NW 22:41:02 38° W 22:41:02 38° W
PSLV R/B 4.5 22:41:48 10° N 22:45:31 49° NNW 22:45:31 49° NNW
Resurs 1-4 Rocket 2.9 22:41:43 10° NNE 22:46:41 40° E 22:46:58 40° ESE
SL-16 R/B 2.4 22:47:43 76° SSE 22:48:17 89° ENE 22:54:33 10° NNW
Sich 1 4.0 22:45:28 10° N 22:48:37 45° N 22:48:37 45° N
H-2A R/B 3.2 22:53:23 38° N 22:53:23 38° N 22:56:04 10° NNW
Cosmos 1607 4.0 22:52:09 63° WNW 22:52:50 69° NW 22:59:01 10° NE
Lacrosse 5 2.2 22:56:06 61° ENE 22:56:06 61° ENE 23:00:20 10° ENE
Meteor 2-20 4.3 22:56:45 73° W 22:56:56 74° WNW 23:03:03 10° N
Cosmos 1634 Rocket 4.4 22:51:44 10° N 22:57:59 59° ENE 23:00:24 37° SE
Cosmos 1818 4.4 22:57:20 40° NW 22:58:24 45° NNW 23:03:40 10° NE
Meteor 2-2 Rocket 4.3 22:58:25 69° SE 22:58:52 72° E 23:04:51 10° NNE
Cosmos 1340 Rocket 4.1 23:00:37 38° NNE 23:00:37 38° NNE 23:03:08 10° NNE
Cosmos 1461 4.5 22:56:30 10° NW 23:00:08 32° NNE 23:03:48 10° E
NPP 4.1 22:59:16 10° NNE 23:04:32 51° E 23:05:06 49° ESE
Cosmos 1464 Rocket 4.2 23:01:09 10° NNW 23:07:11 53° W 23:07:11 53° W
Cosmos 292 Rocket 4.2 23:09:28 56° NNW 23:09:28 56° NNW 23:13:40 10° NNE
ATLAS 5 CENTAUR R/B 2.7 23:10:10 37° ESE 23:10:10 37° ESE 23:14:02 10° ENE
SL-24 R/B - RUBIN 2 4.0 23:10:12 77° NNW 23:10:12 77° NNW 23:15:43 10° NE
Meteor 2-10 Rocket 3.9 23:10:26 60° WNW 23:10:33 60° WNW 23:16:13 10° N
SL-27 R/B 4.4 23:08:41 10° N 23:11:15 28° NNE 23:11:15 28° NNE
CZ-2D R/B 2.3 23:06:35 10° NNE 23:11:52 59° ESE 23:12:20 57° SE
CZ-4B R/B 3.6 23:12:16 24° ENE 23:12:43 25° ENE 23:15:39 10° N
Cosmos 1151 Rocket 4.4 23:14:38 31° E 23:14:59 31° E 23:18:47 10° NNE
IRS-1D 4.4 23:11:55 10° NNE 23:17:03 44° E 23:18:15 38° SE
ATLAS CENTAUR R/B 3.1 23:17:12 28° NW 23:18:34 33° NNW 23:22:52 10° NE
Cosmos 2082 Rocket 2.4 23:14:51 10° NW 23:19:35 54° WNW 23:19:35 54° WNW
Cosmos 990 Rocket 4.1 23:15:27 10° NNW 23:19:45 60° NW 23:19:45 60° NW
Cosmos 1816 Rocket 4.4 23:19:32 59° SSE 23:20:43 78° E 23:26:52 10° NNE
Cosmos 2034 Rocket 4.1 23:16:18 10° NNW 23:22:19 55° W 23:22:22 55° W
Cosmos 2221 3.6 23:25:28 37° NW 23:25:28 37° NW 23:28:39 10° N
Cosmos 1666 Rocket 4.3 23:20:35 10° NNW 23:23:44 45° NNW 23:23:44 45° NNW
Cosmos 1933 Rocket 4.3 23:22:10 10° N 23:26:34 51° ENE 23:27:25 44° ESE
USA 267 3.2 23:20:04 10° E 23:26:38 81° N 23:30:27 28° W
Cosmos 1844 Rocket 3.3 23:26:16 43° WNW 23:27:12 46° NW 23:32:41 10° NNE
AQUA 3.7 23:34:54 10° NNE 23:39:42 78° ESE 23:40:05 72° SSE
SL-08 R/B 3.2 23:40:50 79° SW 23:40:58 80° WSW 23:45:47 10° NNW
MOS 1-B Rocket 4.1 23:36:17 10° NNE 23:43:24 86° WNW 23:45:13 50° SSW
Meteor 1-27 4.5 23:43:11 49° W 23:43:45 51° WNW 23:49:16 10° N
BREEZE-M DEB (TANK) 4.3 23:44:59 44° S 23:44:59 44° S 23:54:54 10° ESE
SWAS 4.4 23:45:36 79° NNE 23:45:36 79° NNE 23:49:42 10° NE
SL-4 R/B 3.8 23:51:48 18° ESE 23:51:48 18° ESE 23:52:56 10° ESE
Cosmos 1470 Rocket 3.5 23:46:01 10° NNW 23:50:06 75° NW 23:50:06 75° NW
Cosmos 1869 4.1 23:52:34 42° NW 23:52:34 42° NW 23:55:45 10° N
Cosmos 1898 Rocket 4.4 23:49:17 10° NW 23:52:40 33° WNW 23:52:40 33° WNW
Cosmos 1606 4.5 23:54:13 22° SE 23:55:41 28° E 23:59:04 10° NNE
